Temp
19 19 19 19 16 15 16 19 21 19 21 22 22 20 18 18 18 17 15 16 16 16 17 15 16 15 15 15 15 15 15 16 16 16 16 16 15 15 15 15 15 15 15 15 14 14 14 14 14
19 19 18 19 15 15 16 19 19 20 22 23 22 21 19 17 17 15 15 15 16 16 15 15 15 15 15 14 14 15 16 16 16 16 16 15 15 15 15 15 15 15 14 14 14 14 14 14 14
19 18 18 14 14 16 17 17 19 21 23 23 21 21 20 17 16 15 16 15 15 15 14 14 14 14 14 14 15 15 16 16 16 15 16 15 15 15 15 15 15 14 14 14 14 14 14 14 14
19 19 20 16 16 19 20 18 19 21 20 20 21 18 18 17 16 16 14 15 15 15 14 14 14 14 14 14 15 15 15 15 15 15 15 15 15 15 15 14 14 14 14 14 14 14 14 14 14
18 19 15 16 18 21 23 21 19 17 17 17 20 18 17 17 17 16 14 14 16 14 14 13 13 14 14 15 15 15 15 15 15 15 15 15 15 15 15 14 14 14 14 14 14 13 13 13 13
18 20 15 16 20 22 18 18 18 18 17 17 18 17 17 17 16 16 14 13 13 13 13 13 13 15 14 14 14 15 15 15 15 15 14 15 15 15 14 14 14 14 14 14 14 14 13 12 12
17 16 16 18 20 22 20 17 16 17 18 18 19 14 16 16 16 15 14 13 13 12 13 13 12 12 12 13 14 15 15 15 15 14 14 14 14 14 14 14 14 14 13 13 13 13 12 12 12
20 16 17 19 20 18 16 15 16 14 16 18 20 17 15 15 15 15 14 13 12 12 13 13 11 12 13 14 15 15 15 15 14 14 14 14 14 14 14 14 14 14 13 13 13 12 12 12 11
21 16 17 19 20 16 15 15 15 16 15 17 19 18 17 16 15 14 12 12 11 11 11 12 12 12 13 14 14 14 14 14 14 14 13 13 13 13 13 13 13 13 13 13 12 12 11 12 11
19 15 18 21 18 17 14 15 15 15 15 17 18 17 17 17 15 14 14 12 11 12 12 12 11 12 13 14 14 14 14 14 13 13 13 13 12 13 13 12 13 12 12 12 12 11 11 11 11
20 18 20 22 20 18 16 16 17 16 15 17 16 17 16 15 14 13 14 13 12 14 13 12 11 13 14 14 14 14 13 13 13 13 12 12 12 12 12 12 12 11 11 11 11 11 11 11 10
19 21 22 21 20 19 19 20 18 19 18 18 18 17 15 16 13 13 14 13 12 13 13 12 12 13 14 14 14 13 13 13 13 12 12 12 12 12 12 12 11 11 11 11 12 11 11 11 10
20 21 24 22 19 18 21 19 18 17 18 17 17 17 16 15 14 13 13 13 13 13 12 12 12 13 14 13 13 12 12 13 13 12 12 12 12 12 12 12 12 12 12 12 12 11 11 11 10
23 23 23 24 20 19 19 19 20 18 18 18 18 17 17 16 16 14 13 13 12 12 12 12 13 13 13 12 13 12 13 13 13 12 12 12 12 12 12 12 12 12 12 11 11 10 10 10 9
23 22 22 23 21 18 20 19 18 19 18 17 17 18 18 17 17 16 15 14 14 13 14 13 13 13 13 13 13 13 13 13 12 12 12 13 13 13 12 11 11 11 11 11 10 10 10 9 9
21 20 19 22 20 19 20 18 18 19 18 18 18 19 19 18 17 16 15 14 14 14 14 14 13 13 13 13 13 13 13 13 12 13 12 12 12 11 11 11 11 10 10 10 10 9 8 7 7
19 17 20 21 21 19 19 18 19 19 18 19 19 20 20 19 18 17 16 15 15 15 14 13 13 13 13 13 13 13 13 13 13 13 12 11 11 11 10 11 11 10 10 9 8 7 7 6 5
18 20 20 19 21 20 18 17 18 21 21 20 20 20 20 19 18 18 17 16 16 15 14 14 13 13 13 13 13 13 13 12 12 12 11 11 10 10 11 11 10 10 9 8 7 6 6 6 5
19 19 19 20 21 20 20 19 19 21 20 19 20 20 19 19 19 18 18 17 16 15 14 14 14 13 13 13 13 12 12 11 10 10 12 11 10 10 10 10 9 7 7 6 6 6 6 5 5
20 19 19 20 22 21 20 19 19 19 20 21 20 20 19 19 18 18 18 17 16 15 14 13 13 13 12 13 12 11 11 11 11 11 10 10 10 10 9 8 8 7 7 7 6 6 5 4 4
18 18 19 21 22 22 21 19 19 21 23 21 21 21 20 19 18 18 17 17 15 14 14 14 13 13 12 12 11 11 10 9 9 10 10 10 9 9 8 8 7 6 6 6 6 5 4 3 3
19 19 20 21 19 18 19 16 17 18 20 21 21 20 19 19 18 17 17 15 15 13 13 13 12 12 12 11 10 11 10 10 10 10 9 8 8 8 7 7 7 7 6 6 5 4 3 3 2
19 20 20 19 19 18 18 15 16 18 20 19 20 21 20 19 18 17 16 16 14 14 13 12 12 12 12 11 11 11 11 10 10 9 8 8 8 7 7 7 6 6 5 5 5 4 3 2 2
20 20 20 18 16 15 18 17 16 15 18 19 20 21 21 18 17 17 16 15 15 14 13 12 12 12 12 11 11 11 11 10 10 8 8 8 7 7 7 6 6 6 5 5 4 3 2 1 1
20 18 14 13 12 13 18 17 17 18 18 18 19 21 19 19 17 17 16 15 14 14 13 12 12 12 11 12 11 11 11 10 10 9 8 8 8 7 6 6 6 5 4 3 2 2 1 1 1
19 18 13 13 11 13 17 16 19 19 20 20 20 20 18 18 17 17 16 15 15 13 13 12 12 11 12 11 11 11 10 9 9 9 8 8 7 7 6 5 5 4 3 2 2 2 1 0 -0
19 18 17 13 12 10 15 19 20 19 18 15 17 17 18 18 18 16 15 15 14 13 12 12 12 12 11 11 11 10 10 9 9 9 8 7 6 7 6 4 4 3 2 1 1 0 0 -0 -0
20 20 16 14 15 15 17 18 17 18 17 15 16 18 18 18 17 16 14 14 13 13 12 12 12 11 11 10 10 9 9 9 8 7 7 6 6 5 4 3 3 2 1 0 -0 -0 -0 -0 -1
18 18 18 17 14 13 11 15 20 19 18 16 17 19 18 17 17 16 16 15 14 13 13 12 11 11 10 10 9 8 8 7 7 6 5 4 3 3 3 3 2 1 1 0 -0 -0 -1 -1 -2
20 19 16 10 16 13 9 13 20 20 18 20 19 19 19 18 17 16 16 15 14 13 12 12 11 11 10 10 8 8 7 7 6 5 4 3 3 3 3 2 1 1 0 -0 -0 -1 -1 -2 -2
Height
1519 1520 1520 1520 1531 1525 1529 1514 1501 1503 1499 1498 1494 1497 1506 1509 1515 1524 1522 1524 1528 1532 1538 1548 1552 1552 1554 1556 1557 1557 1559 1561 1561 1563 1566 1566 1570 1569 1570 1573 1573 1573 1575 1576 1575 1575 1574 1575 1576
1518 1519 1520 1518 1530 1538 1527 1507 1502 1494 1498 1499 1498 1501 1504 1515 1514 1518 1522 1525 1526 1529 1537 1545 1554 1552 1555 1557 1557 1559 1559 1562 1564 1565 1566 1569 1570 1571 1572 1575 1575 1576 1578 1578 1578 1579 1578 1578 1579
1516 1518 1520 1519 1525 1531 1521 1508 1499 1496 1495 1499 1503 1504 1510 1519 1519 1519 1521 1524 1528 1532 1540 1547 1551 1551 1555 1558 1558 1560 1560 1563 1564 1566 1567 1572 1571 1573 1574 1577 1576 1578 1580 1580 1581 1582 1582 1583 1582
1515 1517 1517 1520 1522 1501 1503 1501 1492 1497 1501 1503 1507 1511 1517 1520 1522 1520 1522 1526 1529 1533 1540 1545 1549 1552 1555 1555 1556 1561 1562 1564 1564 1566 1569 1573 1573 1575 1577 1578 1580 1582 1582 1582 1583 1584 1585 1584 1584
1515 1515 1521 1520 1509 1493 1492 1490 1493 1503 1509 1510 1508 1518 1520 1521 1522 1525 1524 1526 1526 1529 1535 1544 1548 1552 1552 1554 1559 1563 1564 1564 1566 1568 1570 1574 1575 1576 1577 1580 1582 1583 1584 1584 1587 1588 1588 1585 1588
1514 1510 1524 1523 1505 1496 1488 1499 1495 1500 1505 1508 1507 1509 1518 1523 1526 1527 1528 1526 1524 1526 1533 1541 1548 1550 1552 1558 1561 1562 1564 1565 1568 1570 1573 1575 1577 1578 1579 1581 1583 1584 1586 1586 1586 1588 1589 1588 1587
1512 1514 1517 1513 1505 1499 1501 1502 1505 1500 1500 1505 1505 1513 1521 1525 1525 1528 1530 1527 1517 1529 1532 1542 1545 1550 1553 1559 1562 1563 1563 1566 1569 1572 1575 1577 1578 1580 1581 1583 1584 1586 1587 1587 1587 1590 1590 1589 1589
1507 1511 1514 1507 1502 1511 1512 1502 1506 1517 1514 1514 1510 1512 1524 1524 1525 1528 1531 1531 1534 1528 1533 1538 1544 1549 1557 1561 1563 1564 1566 1568 1570 1571 1575 1577 1579 1581 1582 1584 1584 1586 1587 1589 1589 1590 1589 1589 1589
1506 1517 1514 1505 1502 1510 1507 1508 1508 1518 1522 1520 1513 1510 1518 1525 1525 1528 1535 1539 1538 1538 1544 1548 1551 1558 1560 1560 1563 1565 1567 1569 1571 1572 1574 1578 1579 1581 1583 1584 1586 1587 1587 1587 1589 1590 1588 1588 1588
1504 1513 1504 1499 1495 1496 1501 1505 1509 1513 1516 1522 1517 1519 1523 1524 1526 1529 1534 1538 1542 1542 1545 1547 1553 1559 1561 1561 1564 1565 1567 1570 1572 1573 1574 1577 1579 1582 1583 1584 1586 1587 1587 1589 1588 1589 1589 1588 1586
1499 1505 1496 1497 1493 1491 1493 1502 1503 1505 1513 1514 1516 1521 1523 1523 1528 1530 1534 1536 1539 1543 1547 1549 1554 1559 1560 1562 1563 1564 1568 1571 1571 1574 1575 1576 1578 1580 1582 1586 1588 1588 1587 1588 1587 1587 1586 1584 1585
1500 1494 1492 1497 1493 1502 1493 1496 1494 1498 1505 1509 1514 1519 1526 1527 1529 1532 1531 1534 1536 1543 1546 1550 1555 1556 1560 1560 1562 1564 1567 1570 1572 1573 1576 1576 1578 1579 1581 1585 1586 1586 1587 1587 1586 1585 1584 1584 1585
1493 1489 1488 1492 1493 1511 1498 1497 1498 1503 1506 1511 1514 1514 1524 1529 1529 1532 1535 1535 1539 1542 1545 1550 1555 1557 1559 1561 1563 1565 1566 1569 1571 1572 1574 1578 1578 1579 1583 1583 1585 1586 1585 1584 1584 1584 1582 1582 1581
1487 1486 1487 1488 1495 1500 1498 1501 1500 1507 1510 1512 1513 1519 1523 1526 1528 1533 1535 1537 1540 1543 1546 1551 1554 1557 1559 1559 1562 1565 1566 1569 1569 1572 1575 1576 1576 1580 1581 1582 1582 1583 1581 1582 1581 1582 1581 1579 1578
1484 1487 1487 1487 1491 1497 1497 1506 1508 1507 1511 1512 1517 1517 1520 1523 1526 1530 1533 1538 1540 1543 1547 1551 1555 1557 1559 1560 1564 1566 1568 1567 1568 1571 1572 1573 1575 1577 1578 1578 1579 1580 1579 1580 1578 1578 1578 1577 1574
1489 1491 1502 1488 1488 1498 1497 1513 1506 1508 1508 1511 1514 1515 1520 1522 1525 1529 1532 1535 1538 1541 1546 1550 1554 1557 1558 1561 1564 1565 1565 1566 1568 1569 1570 1573 1574 1575 1575 1576 1577 1577 1576 1576 1575 1576 1574 1572 1570
1496 1509 1498 1493 1487 1494 1497 1508 1505 1505 1507 1509 1512 1516 1520 1522 1525 1529 1531 1534 1537 1539 1544 1548 1552 1554 1558 1561 1562 1563 1564 1566 1567 1567 1569 1570 1571 1574 1575 1574 1574 1574 1575 1573 1573 1571 1569 1566 1563
1507 1501 1498 1501 1492 1491 1500 1504 1500 1501 1503 1505 1510 1514 1518 1523 1526 1528 1530 1533 1534 1537 1542 1544 1549 1553 1557 1559 1560 1562 1563 1564 1566 1566 1566 1569 1570 1570 1571 1570 1572 1572 1572 1571 1570 1567 1564 1561 1558
1497 1499 1501 1494 1485 1493 1496 1499 1497 1498 1501 1504 1507 1512 1518 1521 1524 1528 1531 1530 1532 1535 1538 1541 1545 1549 1553 1555 1557 1560 1562 1563 1564 1564 1564 1566 1568 1568 1569 1569 1569 1568 1568 1567 1564 1562 1559 1557 1554
1500 1500 1501 1491 1483 1489 1491 1498 1497 1495 1500 1501 1505 1510 1514 1519 1522 1526 1529 1528 1529 1532 1535 1539 1543 1547 1550 1553 1556 1559 1561 1562 1562 1562 1562 1564 1566 1567 1568 1568 1567 1566 1565 1563 1561 1558 1556 1554 1553
1501 1505 1497 1492 1484 1485 1490 1502 1503 1495 1495 1500 1502 1504 1508 1513 1518 1522 1523 1525 1528 1531 1534 1538 1540 1544 1546 1551 1554 1557 1558 1559 1559 1561 1561 1563 1564 1565 1564 1563 1562 1561 1560 1559 1557 1556 1554 1552 1552
1500 1495 1490 1489 1498 1513 1494 1527 1508 1502 1496 1497 1499 1501 1504 1509 1514 1518 1522 1523 1525 1530 1532 1534 1538 1541 1542 1547 1550 1552 1554 1555 1557 1557 1558 1560 1562 1561 1560 1559 1558 1557 1556 1555 1553 1553 1551 1549 1548
1495 1488 1489 1491 1499 1504 1506 1522 1513 1502 1499 1499 1499 1497 1499 1502 1505 1512 1516 1520 1524 1527 1530 1533 1535 1538 1541 1543 1547 1549 1551 1552 1554 1554 1556 1558 1558 1557 1555 1555 1555 1554 1553 1552 1550 1549 1547 1546 1544
1485 1488 1489 1495 1506 1523 1502 1508 1513 1511 1495 1494 1494 1492 1497 1500 1505 1510 1514 1519 1521 1524 1527 1530 1533 1536 1539 1541 1543 1545 1547 1547 1548 1551 1553 1554 1554 1554 1553 1552 1552 1551 1550 1548 1546 1545 1543 1542 1541
1488 1496 1527 1536 1540 1534 1503 1509 1502 1484 1485 1486 1485 1487 1496 1497 1503 1507 1511 1515 1517 1521 1524 1527 1531 1534 1536 1537 1540 1541 1542 1544 1546 1548 1549 1550 1551 1550 1550 1549 1548 1548 1547 1544 1542 1541 1539 1538 1536
1491 1498 1525 1542 1547 1532 1503 1513 1488 1470 1475 1480 1483 1487 1496 1496 1500 1503 1507 1511 1514 1519 1522 1525 1528 1530 1532 1534 1536 1538 1539 1541 1543 1543 1545 1545 1545 1544 1543 1544 1543 1542 1544 1542 1540 1537 1535 1534 1532
1493 1498 1491 1518 1528 1541 1513 1488 1476 1472 1476 1480 1484 1490 1493 1495 1499 1501 1506 1510 1514 1517 1521 1525 1526 1528 1529 1531 1533 1535 1537 1538 1539 1540 1541 1541 1540 1538 1537 1538 1538 1538 1539 1538 1537 1534 1533 1531 1528
1486 1486 1507 1511 1525 1527 1506 1496 1498 1485 1485 1485 1487 1489 1491 1495 1499 1503 1505 1508 1512 1516 1521 1524 1525 1526 1527 1529 1531 1532 1535 1537 1538 1539 1540 1538 1539 1539 1536 1535 1535 1534 1535 1535 1533 1531 1529 1527 1525
1491 1493 1491 1495 1510 1527 1537 1515 1480 1482 1481 1486 1484 1485 1488 1492 1496 1500 1504 1507 1510 1514 1517 1521 1524 1525 1526 1527 1528 1530 1534 1535 1536 1538 1536 1536 1534 1537 1536 1535 1532 1531 1531 1531 1528 1526 1525 1523 1521
1477 1485 1493 1523 1509 1513 1530 1518 1479 1478 1477 1477 1480 1482 1484 1487 1490 1494 1498 1502 1505 1507 1511 1515 1519 1521 1522 1524 1525 1528 1531 1532 1533 1534 1534 1531 1533 1532 1533 1530 1529 1528 1527 1526 1523 1521 1519 1517 1515
Wind_Speed
8 4 4 5 2 3 5 8 1 8 5 6 11 11 11 14 3 3 26 23 32 34 30 23 25 26 23 21 18 17 16 15 15 16 17 18 17 17 17 16 18 21 22 23 24 25 26 25 26
7 5 6 5 2 0 6 5 7 8 10 13 18 16 11 5 7 17 22 23 25 35 34 31 27 25 23 20 19 17 16 15 15 16 17 16 16 15 17 18 22 24 25 26 27 27 27 25 23
5 6 4 4 3 7 4 3 5 3 14 8 6 15 8 5 18 15 24 25 31 35 35 31 27 25 22 19 18 16 16 15 17 16 17 15 15 16 19 20 22 24 24 25 26 26 26 24 21
4 3 6 0 10 16 8 9 11 12 16 13 13 7 9 10 13 15 31 28 39 36 33 29 26 23 22 19 16 14 15 15 17 17 16 15 17 19 20 21 21 22 23 23 23 24 24 25 22
5 6 3 4 12 14 5 10 15 8 9 5 13 6 6 7 7 19 31 38 41 38 35 29 27 23 20 15 14 14 14 15 16 16 16 16 18 19 20 19 19 19 19 20 20 21 21 23 24
3 3 2 6 12 9 11 16 22 15 9 8 10 11 5 9 12 14 23 32 36 41 37 31 26 24 22 17 16 15 13 15 15 16 16 17 18 19 19 18 17 16 16 16 16 16 17 19 20
9 1 7 11 15 10 5 10 9 6 8 3 19 8 16 18 16 13 17 23 30 34 36 29 27 23 16 18 16 14 13 15 16 16 16 17 17 17 16 15 13 12 12 12 13 13 14 15 16
17 4 7 10 14 4 6 8 13 19 11 12 5 5 10 26 19 16 17 17 18 26 25 19 24 19 17 16 14 14 14 16 18 18 18 16 15 13 11 9 10 9 9 9 11 11 10 11 10
22 1 11 10 4 5 4 7 15 10 19 23 6 15 24 21 19 23 23 14 22 21 25 29 19 19 19 18 17 16 17 18 19 18 17 14 13 13 11 9 7 7 7 8 11 10 5 6 11
4 4 8 5 6 5 16 11 22 11 4 10 10 17 15 15 19 24 19 16 19 25 16 19 20 19 19 18 17 16 18 19 20 18 15 11 9 6 7 8 10 8 9 7 10 6 9 11 14
15 8 11 2 7 14 15 10 7 12 5 7 9 14 9 20 23 34 31 19 28 30 23 27 22 22 18 18 19 19 21 21 18 14 16 11 8 4 1 3 8 7 8 7 6 4 1 4 7
6 18 21 8 12 8 5 9 11 10 5 9 18 21 16 11 33 30 36 30 36 37 25 26 25 20 15 18 20 20 19 17 14 13 13 14 13 10 10 10 8 11 7 4 3 6 4 7 11
7 8 20 19 32 3 17 7 9 12 14 17 18 22 20 19 22 23 33 33 34 31 30 29 25 19 23 23 22 20 18 13 15 15 13 13 10 8 7 6 8 10 7 7 8 8 11 15 14
15 16 15 9 39 24 14 2 9 10 14 13 15 19 22 22 25 27 28 33 33 33 32 30 26 24 21 21 20 23 18 20 17 12 8 8 7 6 10 12 11 10 12 11 10 13 15 17 15
5 2 6 2 15 5 24 2 6 21 19 21 22 22 21 23 26 28 32 33 32 31 27 32 27 27 24 26 24 22 22 20 15 8 3 2 10 12 12 8 8 8 10 11 12 15 17 15 13
4 4 3 4 10 5 9 3 5 26 26 24 25 21 20 28 26 28 32 35 32 28 22 27 31 26 26 26 23 22 22 16 11 5 8 3 9 8 8 8 6 8 8 12 15 16 15 13 18
3 3 2 1 9 5 4 4 4 30 27 26 26 21 24 26 29 28 30 33 28 23 23 26 30 27 24 22 22 24 17 10 10 13 5 7 8 10 10 6 6 8 12 12 13 14 15 18 17
4 1 3 5 4 6 4 7 6 28 28 27 27 25 25 25 26 25 25 28 26 22 23 25 26 25 23 24 27 21 11 11 15 12 5 9 10 8 5 6 9 10 10 12 13 16 17 19 23
5 4 6 10 7 10 11 6 9 17 23 24 28 30 28 27 25 23 25 28 29 28 26 26 25 25 25 30 28 19 11 10 10 10 11 9 8 7 7 10 9 8 10 12 16 17 20 22 24
15 7 9 13 6 4 8 10 10 10 13 28 30 31 29 25 28 25 27 30 33 32 31 27 24 26 26 33 26 19 13 12 13 11 10 10 9 9 10 10 12 13 15 17 18 19 21 20 21
6 4 11 2 0 2 3 3 4 5 19 27 33 34 34 34 33 31 22 27 35 34 30 24 19 19 26 28 20 14 11 16 15 12 12 12 10 6 7 11 13 14 16 18 19 20 21 20 21
5 10 8 3 1 3 3 1 4 6 2 2 21 31 35 36 34 34 27 25 28 30 25 20 15 17 20 23 20 22 21 21 16 12 12 11 5 6 8 12 15 17 19 21 22 23 20 21 21
8 7 5 5 3 2 1 5 5 2 5 7 8 18 34 38 39 32 32 28 24 22 21 16 16 19 22 23 25 25 20 20 18 18 15 6 4 5 12 14 15 18 20 22 25 20 17 16 21
13 3 3 3 2 2 6 4 3 4 17 6 21 16 11 30 34 31 31 31 28 22 17 21 21 21 22 22 24 27 25 26 24 24 16 11 13 12 14 18 20 23 24 22 19 17 16 17 20
4 2 3 5 5 5 9 2 9 15 9 14 18 25 13 26 26 29 32 31 28 24 24 26 23 25 28 29 25 27 25 27 26 21 18 13 13 17 17 20 22 23 20 19 17 17 16 18 22
2 4 5 4 2 4 11 6 5 16 23 29 30 21 17 17 19 21 27 24 20 24 25 25 29 30 32 31 28 27 24 23 22 21 16 13 14 17 19 22 21 18 21 18 18 16 16 16 17
4 5 7 6 3 3 5 6 5 8 8 10 15 17 20 19 21 22 22 20 20 25 25 27 28 30 29 30 30 30 27 24 21 18 16 15 18 17 20 18 17 20 19 19 16 15 16 19 19
4 3 4 3 3 4 3 1 1 5 6 7 12 23 23 24 26 27 23 22 23 27 28 30 26 27 28 28 29 28 24 21 17 17 17 16 15 13 15 17 18 18 18 16 15 17 18 23 26
2 2 2 3 5 4 1 4 1 5 8 10 15 29 32 32 31 29 27 25 26 26 25 24 25 26 27 27 27 25 20 17 17 17 13 7 10 19 18 18 18 18 20 15 18 21 24 26 25
4 4 6 5 4 2 4 5 2 5 8 14 18 29 32 34 34 33 31 31 31 30 27 25 29 26 28 29 29 25 19 17 15 11 8 15 13 16 18 18 19 19 18 16 21 23 25 25 23
Wind_Direction
277 235 260 280 35 103 250 256 4 19 39 66 55 85 90 46 56 125 153 168 154 151 150 155 158 152 144 139 132 125 118 110 106 104 100 97 94 88 84 79 79 80 80 78 76 74 73 76 82
248 189 289 267 147 303 271 168 106 133 114 97 77 84 55 62 76 129 152 167 166 161 155 159 160 148 143 138 131 126 118 111 105 106 105 103 97 89 88 88 89 88 86 84 80 75 73 77 86
231 219 253 160 213 221 218 322 155 111 133 110 89 77 65 101 130 139 165 158 154 153 156 155 152 144 142 135 125 124 119 115 112 112 110 107 98 96 97 97 94 92 90 86 81 76 71 72 82
183 229 253 151 258 261 227 200 175 169 76 70 104 71 69 72 153 157 153 157 159 156 153 150 149 144 136 126 125 125 119 118 118 116 112 107 104 103 101 97 94 92 87 82 79 75 68 63 67
184 260 222 258 251 271 263 203 95 93 112 104 112 72 74 112 142 164 155 156 167 153 150 151 147 139 123 124 132 130 122 118 117 116 115 111 109 108 106 101 97 92 89 83 76 67 60 59 60
269 221 358 258 275 273 71 98 94 102 134 129 95 117 85 135 154 161 166 164 161 151 146 147 141 136 132 150 141 132 122 118 118 116 116 113 113 111 107 102 99 96 91 82 74 61 53 52 55
222 54 259 276 283 307 89 70 33 65 139 139 136 127 156 132 159 158 159 153 140 146 140 134 121 119 136 145 142 128 121 125 125 120 116 115 112 110 108 106 100 93 86 80 69 54 52 48 46
247 124 287 274 278 82 353 76 85 27 340 325 137 126 148 144 147 157 146 140 128 112 150 149 122 150 160 152 144 127 135 133 127 123 113 105 101 106 100 106 102 92 83 68 58 50 55 47 44
262 324 260 281 334 118 29 92 77 100 309 293 68 100 143 161 153 134 110 121 142 119 123 125 144 157 161 152 144 141 138 130 128 123 118 114 111 103 80 81 77 76 71 73 59 60 43 15 2
188 210 255 291 194 163 157 158 156 157 121 286 87 111 140 153 140 128 118 94 143 106 102 149 153 157 159 148 138 136 135 134 130 124 122 119 101 90 68 82 83 72 69 73 53 42 8 346 350
258 240 260 239 210 146 131 161 171 133 166 183 126 107 96 124 126 119 125 119 156 146 133 154 154 168 160 149 143 140 135 135 141 139 140 137 124 134 89 124 84 78 86 74 89 64 43 332 340
228 237 248 155 39 328 84 110 81 127 192 160 132 128 127 127 129 132 138 144 155 169 156 153 161 148 155 155 141 143 146 146 150 165 170 159 170 158 120 143 140 116 127 149 252 252 269 321 312
251 253 270 142 89 167 119 61 89 105 92 129 145 131 141 147 137 133 148 147 150 156 154 156 158 146 144 141 149 156 155 167 182 186 178 174 170 167 168 179 194 211 227 286 277 264 269 303 313
256 242 270 97 141 137 112 174 100 163 144 149 133 148 159 147 144 145 151 148 155 157 159 162 164 156 159 161 169 163 173 191 197 166 147 164 163 191 226 248 233 240 253 266 281 290 300 309 310
351 34 273 109 131 120 119 349 134 161 157 147 163 163 163 161 148 150 149 151 155 160 160 169 164 168 173 172 174 178 195 199 184 158 8 272 227 246 239 228 232 249 270 278 287 289 297 302 300
355 1 69 290 87 105 118 284 357 172 162 171 171 172 183 152 155 147 154 156 164 163 171 167 169 172 177 184 180 192 198 193 184 228 340 189 214 211 207 207 245 268 282 285 286 296 304 293 306
320 260 139 182 130 145 92 232 204 176 175 173 172 161 139 144 148 150 159 169 174 174 171 167 174 179 184 187 189 193 196 204 271 290 306 168 182 193 205 213 241 262 275 286 294 293 296 312 321
295 45 292 236 177 159 169 207 208 171 163 161 161 160 155 157 157 163 168 179 183 186 173 178 179 184 186 189 188 198 219 252 266 257 221 191 187 183 220 248 257 268 284 291 287 302 316 319 321
285 246 244 263 233 154 194 164 196 184 170 164 170 161 163 168 171 169 172 184 188 187 183 186 184 190 193 188 194 200 242 239 217 184 218 185 169 195 235 263 281 289 292 306 313 315 319 322 319
264 256 271 277 197 127 181 189 200 188 171 171 170 165 170 175 167 172 178 184 191 188 187 186 193 195 197 194 201 217 246 211 202 189 196 195 212 218 222 237 258 289 305 312 317 318 319 321 322
56 333 276 294 97 298 39 87 22 211 191 183 180 182 180 177 177 174 175 186 188 187 192 199 198 199 200 197 206 212 182 176 188 197 206 203 217 249 288 307 311 309 310 315 320 323 322 317 314
225 239 298 340 283 202 78 145 353 306 19 230 192 187 183 184 186 180 181 187 191 188 196 200 195 205 191 192 190 199 195 192 202 214 213 201 230 287 304 284 289 299 307 308 312 312 308 309 306
250 219 212 271 90 46 359 115 269 304 225 269 273 204 187 190 189 184 187 194 193 199 200 201 199 190 177 177 186 195 200 206 209 208 197 203 266 250 276 283 285 287 288 296 300 302 301 305 304
280 297 314 19 90 69 233 134 229 196 227 175 253 227 198 187 178 180 190 199 206 207 220 191 190 182 178 185 192 196 203 209 192 183 188 196 200 223 252 261 273 280 288 294 299 305 300 303 299
245 53 359 7 10 231 358 139 239 226 205 203 212 213 230 160 164 185 191 195 202 215 200 189 189 183 182 193 194 204 207 203 203 208 212 208 230 244 258 273 280 288 296 303 302 300 294 296 296
271 126 150 170 238 269 335 237 227 214 207 208 211 215 196 169 177 187 196 194 201 193 189 185 184 188 194 202 205 206 204 201 209 217 233 240 257 257 268 275 283 295 303 305 309 307 298 296 293
296 327 181 105 4 35 241 314 7 81 169 152 182 186 177 175 179 179 189 191 191 189 191 190 196 202 208 213 217 217 216 218 222 231 237 257 262 266 268 277 289 291 301 310 314 308 299 296 292
174 239 32 0 150 250 314 347 182 105 149 176 180 174 170 177 180 178 175 185 190 191 197 200 208 215 219 223 228 229 226 227 231 235 240 263 268 272 273 278 287 296 300 308 297 296 289 291 297
225 248 230 147 141 183 128 282 166 159 158 168 177 178 181 183 186 192 200 205 204 206 216 212 210 216 223 227 227 226 228 228 228 244 260 264 278 280 291 280 286 286 293 300 290 290 293 301 308
171 192 186 123 265 204 146 269 190 135 170 171 181 189 189 191 194 199 201 202 207 210 211 211 207 217 223 225 224 224 234 236 259 256 228 278 285 274 278 281 277 281 291 294 287 291 295 303 305